Location: Krakow
(50.0830°N, 19.9170°E)
Time: 13:30:43
(UTC+01:00)

A-11 Canister half - All Passes

Search period start: 15 March 2026 00:00
Search period end: 25 March 2026 00:00
Orbit: 1513 x 1686 km, 47.2° (Epoch: 14 March)

Date Brightness Start Highest point End Pass type
(mag) Time Alt. Az. Time Alt. Az. Time Alt. Az.
15 Mar - 11:59:41 10° S 12:06:31 22° SE 12:13:29 10° E daylight
15 Mar - 14:00:15 10° SW 14:09:46 53° SSE 14:19:30 10° ENE daylight
15 Mar - 16:04:12 10° WSW 16:14:17 76° S 16:24:27 10° E daylight
15 Mar - 18:09:02 10° W 18:19:04 66° SSW 18:29:03 10° ESE visible
15 Mar - 20:14:13 10° W 20:22:59 35° SW 20:31:40 10° SSE visible
16 Mar - 11:37:06 10° S 11:43:36 20° SE 11:50:12 10° E daylight
16 Mar - 13:37:19 10° SW 13:46:45 51° SSE 13:56:25 10° ENE daylight
16 Mar - 15:41:09 10° WSW 15:51:12 76° S 16:01:22 10° E daylight
16 Mar - 17:45:58 10° W 17:56:01 68° SSW 18:06:03 10° ESE daylight
16 Mar - 19:51:05 10° WNW 20:00:00 36° SW 20:08:50 10° SSE visible
16 Mar - 22:01:40 10° WSW 22:02:32 10° WSW 22:03:25 10° SW visible
17 Mar - 11:14:33 10° SSE 11:20:40 19° SE 11:26:53 10° E daylight
17 Mar - 13:14:24 10° SW 13:23:44 49° SSE 13:33:18 10° ENE daylight
17 Mar - 15:18:07 10° WSW 15:28:08 75° S 15:38:18 10° E daylight
17 Mar - 17:22:53 10° W 17:32:58 69° SSW 17:43:00 10° ESE daylight
17 Mar - 19:27:58 10° WNW 19:37:01 38° SW 19:45:59 10° SSE visible
17 Mar - 21:36:52 10° WSW 21:39:38 11° WSW 21:42:23 10° SW visible
18 Mar - 10:52:03 10° SSE 10:57:45 17° SE 11:03:32 10° E daylight
18 Mar - 12:51:29 10° SW 13:00:44 47° SSE 13:10:12 10° ENE daylight
18 Mar - 14:55:04 10° WSW 15:05:03 74° S 15:15:13 10° E daylight
18 Mar - 16:59:50 10° W 17:09:53 70° SSW 17:19:58 10° ESE daylight
18 Mar - 19:04:52 10° WNW 19:14:01 40° SW 19:23:06 10° SSE visible
18 Mar - 21:12:59 10° W 21:16:44 13° WSW 21:20:29 10° SW visible
19 Mar - 10:29:38 10° SSE 10:34:50 16° SE 10:40:07 10° E daylight
19 Mar - 12:28:35 10° SSW 12:37:43 45° SE 12:47:07 10° ENE daylight
19 Mar - 14:32:02 10° WSW 14:41:59 73° S 14:52:08 10° E daylight
19 Mar - 16:36:46 10° W 16:46:50 71° SSW 16:56:56 10° ESE daylight
19 Mar - 18:41:46 10° WNW 18:51:01 42° SW 19:00:14 10° SSE visible
19 Mar - 20:49:19 10° W 20:53:50 14° WSW 20:58:19 10° SSW visible
20 Mar - 10:07:17 10° SSE 10:11:56 14° ESE 10:16:38 10° E daylight
20 Mar - 12:05:42 10° SSW 12:14:43 43° SE 12:24:00 10° ENE daylight
20 Mar - 14:09:00 10° WSW 14:18:55 72° SSE 14:29:03 10° E daylight
20 Mar - 16:13:43 10° W 16:23:45 73° SSW 16:33:52 10° ESE daylight
20 Mar - 18:18:39 10° WNW 18:28:01 44° SW 18:37:20 10° SSE visible
20 Mar - 20:25:48 10° W 20:30:55 15° SW 20:36:00 10° SSW visible
21 Mar - 09:45:04 10° SSE 09:49:02 13° ESE 09:53:02 10° E daylight
21 Mar - 11:42:50 10° SSW 11:51:44 41° SE 12:00:53 10° ENE daylight
21 Mar - 13:46:00 10° WSW 13:55:51 71° SSE 14:05:58 10° E daylight
21 Mar - 15:50:39 10° W 16:00:41 73° S 16:10:50 10° ESE daylight
21 Mar - 17:55:34 10° WNW 18:05:00 46° SW 18:14:25 10° SE daylight
21 Mar - 20:02:22 10° W 20:08:00 17° SW 20:13:35 10° SSW visible
22 Mar - 09:23:02 10° SE 09:26:08 12° ESE 09:29:16 10° ESE daylight
22 Mar - 11:19:58 10° SSW 11:28:44 39° SE 11:37:45 10° ENE daylight
22 Mar - 13:22:58 10° WSW 13:32:47 70° SSE 13:42:53 10° E daylight
22 Mar - 15:27:35 10° W 15:37:37 74° S 15:47:46 10° ESE daylight
22 Mar - 17:32:29 10° WNW 17:41:59 47° SSW 17:51:30 10° SE daylight
22 Mar - 19:39:00 10° W 19:45:04 18° SW 19:51:07 10° SSW visible
23 Mar - 09:01:29 10° SE 09:03:15 11° ESE 09:05:01 10° ESE daylight
23 Mar - 10:57:09 10° SSW 11:05:45 37° SE 11:14:38 10° ENE daylight
23 Mar - 12:59:58 10° WSW 13:09:44 69° SSE 13:19:48 10° E daylight
23 Mar - 15:04:32 10° W 15:14:32 75° S 15:24:42 10° ESE daylight
23 Mar - 17:09:24 10° WNW 17:18:58 49° SSW 17:28:33 10° SE daylight
23 Mar - 19:15:41 10° W 19:22:07 19° SW 19:28:34 10° SSW visible
24 Mar - 10:34:19 10° SSW 10:42:47 36° SE 10:51:31 10° E daylight
24 Mar - 12:36:58 10° WSW 12:46:41 67° SSE 12:56:42 10° E daylight
24 Mar - 14:41:28 10° W 14:51:28 76° S 15:01:38 10° ESE daylight
24 Mar - 16:46:20 10° WNW 16:55:56 51° SSW 17:05:36 10° SE daylight
24 Mar - 18:52:23 10° W 18:59:11 21° SW 19:05:59 10° S visible
